Regional Weather Roundup
Issued by NWS Upton, NY

Home | Current Version | Previous Version | Text Only | Print | Product List | Glossary On
Versions: 1 2 3 4 5 6 7 8 9 10 11 12 13 14 15 16 17 18 19 20 21 22 23 24 25 26 27
000
ASUS41 KOKX 011808
RWROKX

REGIONAL WEATHER ROUNDUP
NATIONAL WEATHER SERVICE NEW YORK NY
100 PM EST WED MAR 01 2017

NOTE: "FAIR" INDICATES FEW OR NO CLOUDS BELOW 12,000 FEET WITH NO
SIGNIFICANT WEATHER AND/OR OBSTRUCTIONS TO VISIBILITY.

NYZ071-072-176-178-NJZ106-104-011900-
NEW YORK CITY METRO AREA

CITY           SKY/WX    TMP DP  RH WIND       PRES   REMARKS
Central Park   CLOUDY    62  58  86 MISG      29.61F
Wall St Helipt CLOUDY    61  57  88 W6        29.60F
LaGuardia APRT CLOUDY    60  56  86 S6        29.59F
Kennedy INTL   FOG       51  51 100 SE9       29.62F VSB 1
Breezy Point     N/A     46 N/A N/A S7          N/A
Newark/Liberty CLOUDY    63  59  87 S9        29.58F
Teterboro      CLOUDY    63  59  87 S14       29.57F
$$

NYZ177-179-078>081-011900-
LONG ISLAND NEW YORK

CITY           SKY/WX    TMP DP  RH WIND       PRES   REMARKS
Jones Beach      N/A     46 N/A N/A S8          N/A
Matinecock PT    N/A     57 N/A N/A S2G9        N/A
Farmingdale    FOG       50  50 100 S10       29.62F VSB 3/4
MacArthur/ISP  FOG       50  50 100 S9        29.62F VSB 1/4
Shirley        FOG       49  49 100 S13       29.63F VSB 1/2
Westhampton    FOG       49  48  97 SW10      29.65F VSB 1/4
Southampton      N/A     46  46 100 S7        29.61F
Bridgehampton  NOT AVBL
East Hampton   FOG       49  49  99 SW10G16   29.64F VSB 1/4
Montauk          N/A     51  51 100 SW12G20   29.67F
$$

NYZ052-065-067-011900-
HUDSON VALLEY

CITY           SKY/WX    TMP DP  RH WIND       PRES   REMARKS
White Plains   FOG       56  55  97 S7        29.56F VSB 1
Newburgh       PTSUNNY   59  57  94 SW10      29.55F
Montgomery     CLOUDY    62  57  83 SW15      29.51F
Poughkeepsie   CLOUDY    58  55  90 S5        29.52F
Albany         PTSUNNY   65  53  65 S21G28    29.42F
$$

NJZ001-105-106-008-010-013-015-019>022-104-011900-
NEW JERSEY

CITY           SKY/WX    TMP DP  RH WIND       PRES   REMARKS
Newark/Liberty CLOUDY    63  59  87 S9        29.58F
Teterboro      CLOUDY    63  59  87 S14       29.57F
Caldwell       CLOUDY    61  58  90 SW5       29.57F
Somerville     CLOUDY    63  59  87 S6        29.55F
Linden         NOT AVBL
Sussex         CLOUDY    62  58  86 SW10G21   29.55F
Andover          N/A     60  56  86 SW13G18   29.56F
Trenton        PTSUNNY   68  61  78 SW17G29   29.58F
Millville      CLOUDY    69  62  78 SW12G22   29.64F
Atlantic City  CLOUDY    71  60  68 SW21G30   29.64F
Wrightstown    CLOUDY    71  60  69 SW28G41   29.56F
Toms River     CLOUDY    71  61  70 SW26G41   29.61F
Belmar         CLOUDY    69  61  75 SW13G28   29.61F
$$

PAZ047>061-062-071-011900-
EASTERN PENNSYLVANIA

CITY           SKY/WX    TMP DP  RH WIND       PRES   REMARKS
Philadelphia   PTSUNNY   72  60  66 SW22G32   29.60F
Allentown      CLOUDY    64  57  78 SW16G28   29.57F
Scranton       LGT RAIN  64  55  72 SW13G23   29.51F
$$

CTZ002-004>006-009-010-012-RIZ004-006-007-MAZ004-011-015-011900-
SOUTHERN NEW ENGLAND
 IN CT

CITY           SKY/WX    TMP DP  RH WIND       PRES   REMARKS
Bradley INTL   CLOUDY    55  53  93 S14G24    29.56F
Hartford       CLOUDY    56  54  93 SW7G20    29.55F
Danbury        LGT RAIN  58  55  90 S12G23    29.55F
Wtrbury/Oxford LGT RAIN  54  50  87 SW10G16     N/A  FOG
Bridgeport     FOG       52  50  93 S16       29.58F VSB 3/4
Meriden        LGT RAIN  53  51  93 S12G18    29.55F
New Haven      FOG       48  48 100 S9        29.58F VSB 1/4
Chester        LGT RAIN  52  52 100 S9G15     29.57F VSB<1/4
Groton         LGT RAIN  47  46  97 S8        29.61F VSB 1/4
Wilimantic     LGT RAIN  57  55  93 S10       29.57F

 IN RI

CITY           SKY/WX    TMP DP  RH WIND       PRES   REMARKS
Providence     RAIN      53  51  93 S15       29.61F FOG
Block Island   NOT AVBL
Westerly       RAIN      49  46  90 S7        29.63F VSB 1/2
 IN MA

CITY           SKY/WX    TMP DP  RH WIND       PRES   REMARKS
Boston         CLOUDY    59  54  83 SW16G25   29.52F
Worcester      CLOUDY    56  52  86 SW23G30   29.51F
Westfield      CLOUDY    57  55  93 S18G25    29.53F
Provincetown   LGT RAIN  49  48  97 S16       29.62F VSB 1/2
Nantucket      LGT RAIN  48  46  93 SW17      29.69F VSB 1/4
$$

ANZ330-335-338-340-345-350-353-355-011900-
COASTAL MARINE OBSERVATIONS


STATION/POSITION TIME  SKY/WX   TEMP    WIND        PRES    VSBY  WAVE
                                AIR SEA DIR/SP/G                  HT/PER
                 (UTC)          (F)     (DEG/KT/KT) (MB)    (MI)  (FT/S)
NY HARB ENTRANCE 1650            46 43  200/ 12/ 14 1004.9          5/ 8
20 S FIRE ISLAND 1750            48 42  210/ 16/ 17 1003.8          5/ 8
GREAT SOUTH BAY  NOT AVBL
23 SSW MONTAUK P 1650            50 47              1006.2          5/ 8
15 E BARNEGAT LI 1700               44                N/A           6/ 6
HUDSON CANYON    1650            53 47  210/ 23/ 27 1007.1          6/ 7
KINGS POINT      1748            52 41              1001.8
EXECUTION ROCKS  NOT AVBL
CENTRAL LI SOUND 1715            45     190/  8/ 12   N/A           1
EASTERN LI SOUND NOT AVBL
ROBBINS REEF     1748            57     170/ 13/ 14 1002.4
$$


>>>>>>>>>>>>>>>>>>>>>>>>>>>> KEY <<<<<<<<<<<<<<<<<<<<<<<<<<<
>                                                          <
>     SKY/WX - Sky Condition/Present Weather               <
>     TMP    - Temperature in Fahrenheit                   <
>     DP     - Dew Point in Fahrenheit                     <
>     RH     - Relative Humidity in Percent                <
>     WIND   - Direction (from) and Speed in MPH           <
>     PRES   - Mean Sea Level Pressure (inches of Hg)      <
>     WCI    - Wind Chill Index                            <
>     VSB    - VISIBILITY IN MILES                         <
>     HX     - HEAT INDEX                                  <
>     TC     - TEMPERATURE IN CELSIUS                      <
>     VRB    - VARIABLE WIND DIRECTION                     <
>                                                          <
>>>>>>>>>>>>>>>>>>>>>>>>>>>> KEY <<<<<<<<<<<<<<<<<<<<<<<<<<<




USA.gov is the U.S. government's official web portal to all federal, state and local government web resources and services.